Simultaneous Nadir Overpasses (SNOs) Predictions

Prediction of SNOs between AQUA and NPP Satellite Orbit:

Table of predicted SNOs for the next 14.0 days since TLE Epoch: 3/13/2021
Index Date (AQUA) Time (AQUA) Lat,Lon (AQUA) SZA (AQUA ) Date (NPP) Time (NPP) Lat,Lon (NPP) SZA (NPP ) Distance(km) Time Diff (sec)
1 03/13/2021 22:37:57 76.39, 80.76 99.72 03/13/2021 22:37:52 76.40, 80.84 99.70 2.27 5
2 03/13/2021 23:27:12 -76.97,-109.60 80.98 03/13/2021 23:28:25 -76.96,-109.69 81.02 2.68 73
3 03/16/2021 14:05:14 -75.72, 26.90 80.57 03/16/2021 14:04:17 -75.73, 26.99 80.55 2.67 57
4 03/16/2021 14:54:20 76.68,-162.38 98.30 03/16/2021 14:54:40 76.69,-162.29 98.26 2.55 20
5 03/19/2021 06:21:43 -75.72, 142.77 81.64 03/19/2021 06:21:12 -75.71, 142.69 81.59 2.48 31
6 03/19/2021 07:10:49 76.68, -46.52 97.23 03/19/2021 07:11:35 76.67, -46.61 97.22 2.57 46
7 03/21/2021 22:38:02 -76.15,-100.04 83.21 03/21/2021 22:37:56 -76.14,-100.08 83.20 1.16 6
8 03/21/2021 23:27:09 77.05, 70.69 95.72 03/21/2021 23:28:20 77.04, 70.65 95.67 1.06 71
9 03/24/2021 14:05:17 75.48,-153.80 96.50 03/24/2021 14:04:19 75.48,-153.81 96.55 0.11 58



Historial Predications of SNOs between AQUA and NPP
